WetterOnline ( https://www.wetteronline.de )

Wetter aktuell Grävenwiesbach

Aktuelles Wetter: Gießen (195m)

6-stündlich | Neueste Meldungen
Ortszeit Temperatur Wetter
Mi, 29.09. 2:00 8.9° C bedeckt
Di, 28.09. 20:00 12.5° C bedeckt
Di, 28.09. 14:00 15.9° C fast wolkenlos
Di, 28.09. 8:00 8.7° C wolkenlos
Di, 28.09. 2:00 11.9° C bewölkt
Mo, 27.09. 20:00 18.2° C bedeckt
Mo, 27.09. 14:00 19.0° C bewölkt
Mo, 27.09. 8:00 14.3° C Nebel
Ortszeit Temperatur Wetter
Mi, 29.09. 4:30 8.9° C bewölkt
Mi, 29.09. 4:20 8.9° C bewölkt
Mi, 29.09. 4:10 8.8° C bedeckt
Mi, 29.09. 4:00 8.8° C bewölkt
Mi, 29.09. 3:50 8.8° C bewölkt
Mi, 29.09. 3:40 8.6° C bewölkt
Mi, 29.09. 3:30 8.6° C bewölkt
Mi, 29.09. 3:00 8.5° C wolkig
Mi, 29.09. 2:30 8.6° C wolkig
Mi, 29.09. 2:00 8.9° C bedeckt
Mi, 29.09. 1:30 9.2° C bedeckt
Ortszeit Relative Feuchte Sichtweite
Mi, 29.09. 2:00 97% 21 km
Di, 28.09. 20:00 81% 35 km
Di, 28.09. 14:00 64% 35 km
Di, 28.09. 8:00 99% 4.4 km
Di, 28.09. 2:00 98% 13 km
Mo, 27.09. 20:00 83% 35 km
Mo, 27.09. 14:00 79% 26 km
Mo, 27.09. 8:00 100% 0.3 km
Ortszeit Relative Feuchte Sichtweite
Mi, 29.09. 4:30 97% 14 km
Mi, 29.09. 4:20 97% -
Mi, 29.09. 4:10 97% -
Mi, 29.09. 4:00 98% 17 km
Mi, 29.09. 3:50 98% -
Mi, 29.09. 3:40 97% -
Mi, 29.09. 3:30 98% 16 km
Mi, 29.09. 3:00 97% 13 km
Mi, 29.09. 2:30 97% 13 km
Mi, 29.09. 2:00 97% 21 km
Mi, 29.09. 1:30 97% 23 km
Ortszeit Niederschlagsmenge Niederschlagsart
Mi, 29.09. 2:00 0.0 l/m2 in 6 Std. -
Di, 28.09. 20:00 0.0 l/m2 in 12 Std. -
Di, 28.09. 14:00 0.0 l/m2 in 6 Std. -
Di, 28.09. 8:00 2 l/m2 in 12 Std. -
Di, 28.09. 2:00 2 l/m2 in 6 Std. Regen
Mo, 27.09. 20:00 0.1 l/m2 in 12 Std. Regen
Mo, 27.09. 14:00 0.0 l/m2 in 6 Std. -
Mo, 27.09. 8:00 0.0 l/m2 in 12 Std. -
Ortszeit Niederschlagsmenge Niederschlagsart
Mi, 29.09. 4:30 0.0 l/m2 in 1 Std. -
Mi, 29.09. 4:20 keine Meldung -
Mi, 29.09. 4:10 keine Meldung -
Mi, 29.09. 4:00 0.0 l/m2 in 1 Std. -
Mi, 29.09. 3:50 keine Meldung -
Mi, 29.09. 3:40 keine Meldung -
Mi, 29.09. 3:30 0.0 l/m2 in 1 Std. -
Mi, 29.09. 3:00 0.0 l/m2 in 1 Std. -
Mi, 29.09. 2:30 0.0 l/m2 in 1 Std. -
Mi, 29.09. 2:00 0.0 l/m2 in 1 Std. -
Mi, 29.09. 1:30 0.0 l/m2 in 1 Std. -
Ortszeit Stärke Spitze Richtung
km/h Bft. km/h Grad Sektor
Mi, 29.09. 2:00 4 1 11 50° NO
Di, 28.09. 20:00 6 1 17 290° W
Di, 28.09. 14:00 7 2 18 220° SW
Di, 28.09. 8:00 7 2 14 230° SW
Di, 28.09. 2:00 6 1 43 240° SW
Mo, 27.09. 20:00 11 2 40 170° S
Mo, 27.09. 14:00 17 3 24 130° SO
Mo, 27.09. 8:00 4 1 11 180° S
Ortszeit Stärke Spitze Richtung
km/h Bft. km/h Grad Sektor
Mi, 29.09. 4:30 6 1 6 60° NO
Mi, 29.09. 4:20 6 1 - 60° NO
Mi, 29.09. 4:10 4 1 - 50° NO
Mi, 29.09. 4:00 4 1 11 50° NO
Mi, 29.09. 3:50 4 1 - 50° NO
Mi, 29.09. 3:40 2 1 - 50° NO
Mi, 29.09. 3:30 4 1 11 360° N
Mi, 29.09. 3:00 7 2 7 40° NO
Mi, 29.09. 2:30 2 1 6 20° N
Mi, 29.09. 2:00 4 1 4 50° NO
Mi, 29.09. 1:30 0 0 4 - -
Ortszeit Untergrenze Bedeckung Gattung
total tief tief mittel hoch
Mi, 29.09. 2:00 4800 m 8/8 8/8 - - -
Di, 28.09. 20:00 5100 m 8/8 8/8 - - -
Di, 28.09. 14:00 750 m 1/8 1/8 - - -
Di, 28.09. 8:00 - 0/8 0/8 - - -
Di, 28.09. 2:00 420 m 7/8 7/8 - - -
Mo, 27.09. 20:00 1230 m 8/8 8/8 - - -
Mo, 27.09. 14:00 720 m 7/8 7/8 - - -
Mo, 27.09. 8:00 <30 m 8/8 0/8 - - -
Ortszeit Bedeckungsgrad in Achtel und Wolkenuntergrenze
Mi, 29.09. 4:30 7(1350m)
Mi, 29.09. 4:20 7(1350m)
Mi, 29.09. 4:10 8(1380m)
Mi, 29.09. 4:00 7(1470m)
Mi, 29.09. 3:50 7(1470m)
Mi, 29.09. 3:40 7(1500m) 7(5100m)
Mi, 29.09. 3:30 4(1500m) 8(5700m) 8(6300m)
Mi, 29.09. 3:00 5(1500m) 7(5700m) 7(6300m)
Mi, 29.09. 2:30 3(1800m) 8(4800m) 8(5400m)
Mi, 29.09. 2:00 8(4800m)
Mi, 29.09. 1:30 8(4800m)
Ortszeit Luftdruck NN (hPa) Tendenz (hPa in 3 Std.)
Mi, 29.09. 2:00 1020 - 1,2
Di, 28.09. 20:00 1021 - 0,9
Di, 28.09. 14:00 1024 - 1,3
Di, 28.09. 8:00 1025 + 1,2
Di, 28.09. 2:00 1023 + 2,0
Mo, 27.09. 20:00 1017 + 0,9
Mo, 27.09. 14:00 1016 - 0,8
Mo, 27.09. 8:00 1017 - 0,4
Ortszeit Luftdruck NN (hPa) Tendenz (hPa in 3 Std.)
Mi, 29.09. 4:30 1019 - 1,4
Mi, 29.09. 4:20 1019 keine Meldung
Mi, 29.09. 4:10 1019 keine Meldung
Mi, 29.09. 4:00 1019 - 1,4
Mi, 29.09. 3:50 1019 keine Meldung
Mi, 29.09. 3:40 1019 keine Meldung
Mi, 29.09. 3:30 1019 - 1,3
Mi, 29.09. 3:00 1019 - 1,3
Mi, 29.09. 2:30 1020 - 1,2
Mi, 29.09. 2:00 1020 - 1,2
Mi, 29.09. 1:30 1020 - 1,4
Ortszeit Schneehöhe (cm)
Mi, 29.09. 2:00 -
Di, 28.09. 20:00 -
Di, 28.09. 14:00 -
Di, 28.09. 8:00 -
Di, 28.09. 2:00 -
Mo, 27.09. 20:00 -
Mo, 27.09. 14:00 -
Mo, 27.09. 8:00 -
Ortszeit Schneehöhe (cm)
Mi, 29.09. 4:30 -
Mi, 29.09. 4:20 -
Mi, 29.09. 4:10 -
Mi, 29.09. 4:00 -
Mi, 29.09. 3:50 -
Mi, 29.09. 3:40 -
Mi, 29.09. 3:30 -
Mi, 29.09. 3:00 -
Mi, 29.09. 2:30 -
Mi, 29.09. 2:00 -
Mi, 29.09. 1:30 -
Link zu dieser Seite / Seite empfehlen

Das Wetter in ...